Skip Page Navigation
NASA JPL Caltech
NASA Logo - Jet Propulsion Laboratory + View the NASA Portal
+ Center for Near-Earth Object Studies
JPL Home Earth Solar System Stars & Galaxies Technology
JPL Solar System Dynamics
BODIES ORBITS EPHEMERIDES TOOLS PHYSICAL DATA DISCOVERY FAQ SITE MAP
JPL Small-Body Database Browser
Search: [ help ]  
212768 (2007 TO70)
Classification: Main-belt Asteroid          SPK-ID: 2212768
Ephemeris | Orbit Diagram | Orbital Elements | Mission Design | Physical Parameters | Discovery Circumstances | Close-Approach Data ]

[ hide orbit diagram ]

For accurate long-term ephemerides, please instead use our Horizons system.This orbit viewer was implemented using two-body methods, and hence should not be used for determining accurate long-term trajectories (over several years or decades) or planetary encounter circumstances.


[ revert to old Java-based viewer ]

Orbital Elements at Epoch 2459000.5 (2020-May-31.0) TDB
Reference: JPL 19 (heliocentric ecliptic J2000)
 Element Value Uncertainty (1-sigma)   Units 
e .1545858373233466 4.6672e-08  
a 3.08383395165149 3.2268e-08 au
q 2.60711689806928 1.3981e-07 au
i 5.928122141919288 6.2132e-06 deg
node 143.950857850779 4.7224e-05 deg
peri 257.0927347585392 5.1006e-05 deg
M 110.1478065375162 1.9175e-05 deg
tp 2458395.286986925420
(2018-Oct-03.78698693)
0.00010313 TDB
period 1978.039250673959
5.42
3.1046e-05
8.5e-08
d
yr
n .1819984107379772 2.8565e-09 deg/d
Q 3.560551005233701 3.7256e-08 au
  Orbit Determination Parameters
   # obs. used (total)      381  
   data-arc span      6819 days (18.67 yr)  
   first obs. used      2001-08-16  
   last obs. used      2020-04-17  
   planetary ephem.      DE431  
   SB-pert. ephem.      SB431-N16  
   condition code      0  
   norm. resid. RMS      .63253  
   source      ORB  
   producer      Otto Matic  
   solution date      2020-May-21 08:49:56  

Additional Information
 Earth MOID = 1.6233 au 
 Jupiter MOID = 1.8866 au 
 T_jup = 3.200 
[ show covariance matrix ]

Ephemeris | Orbit Diagram | Orbital Elements | Mission Design | Physical Parameters | Discovery Circumstances | Close-Approach Data ]

Physical Parameter Table
Parameter Symbol Value Units Sigma Reference Notes
absolute magnitude H 15.4   n/a MPO454527  

212768 (2007 TO70)          Discovered 2007-Oct-12 by Tucker, R. A. at Goodricke-Pigott
Reference: 20090409/Numbers.arcLast Updated: 2009-04-10

[ show close-approach data ]
Alternate Designations
 2007 TO70 = 2001 SV180 = 2005 JO59 
Ephemeris | Orbit Diagram | Orbital Elements | Mission Design | Physical Parameters | Discovery Circumstances | Close-Approach Data ]
ABOUT SSD CREDITS/AWARDS PRIVACY/COPYRIGHT GLOSSARY LINKS
FirstGov 2020-Sep-21 20:40 UT
(server date/time)  
NASA Home Page
Site Manager:   Ryan S. Park
Webmaster  Alan B. Chamberlin